FW5830 Weather Reports


time (UTC)temp
C
wind
direction
speed
KPH
gust
KPH
rain 1hr
cm
rain 24hr
cm
rain mn
cm
humidity
%
barometer
mb
20260906224604 30 316 3.2 9.7 0.00 0.00 0.00 33 1016.6
20260906223106 30 278 3.2 12.9 0.00 0.00 0.00 31 1016.7
20260906221602 30 126 6.4 17.7 0.00 0.00 0.00 32 1017.1
20260906220103 31 146 0.0 8.0 0.00 0.00 0.00 31 1017.0
20260906214559 30 120 4.8 8.0 0.00 0.00 0.00 32 1017.4
20260906213102 31 326 3.2 11.3 0.00 0.00 0.00 31 1017.6
20260906211601 30 183 1.6 11.3 0.00 0.00 0.00 32 1017.8
20260906210111 30 0 3.2 12.9 0.00 0.00 0.00 31 1018.2
20260906204554 30 265 1.6 12.9 0.00 0.00 0.00 31 1018.4
20260906203054 31 203 1.6 6.4 0.00 0.00 0.00 31 1018.6
20260906201636 30 311 1.6 11.3 0.00 0.00 0.00 32 1018.6
20260906200059 30 276 1.6 4.8 0.00 0.00 0.00 31 1018.8
20260906194606 30 230 1.6 4.8 0.00 0.00 0.00 33 1018.8
20260906193056 30 269 1.6 4.8 0.00 0.00 0.00 32 1019.0
20260906191606 28 199 1.6 6.4 0.00 0.00 0.00 34 1019.2
20260906190058 28 256 1.6 4.8 0.00 0.00 0.00 36 1019.3
20260906184559 28 212 0.0 4.8 0.00 0.00 0.00 35 1019.6
20260906183057 28 248 1.6 8.0 0.00 0.00 0.00 37 1019.9
20260906181604 27 259 1.6 6.4 0.00 0.00 0.00 39 1020.3
20260906180055 27 230 1.6 4.8 0.00 0.00 0.00 40 1020.4
20260906174554 26 0 1.6 6.4 0.00 0.00 0.00 41 1020.7
20260906173056 26 144 0.0 4.8 0.00 0.00 0.00 44 1021.1
20260906171555 25 250 1.6 4.8 0.00 0.00 0.00 47 1021.3
20260906170055 24 193 1.6 6.4 0.00 0.00 0.00 49 1021.6
20260906164556 25 203 0.0 6.4 0.00 0.00 0.00 49 1021.8
20260906163101 24 0 1.6 4.8 0.00 0.00 0.00 50 1021.7
20260906161607 23 0 1.6 6.4 0.00 0.00 0.00 53 1021.7
20260906160058 23 198 1.6 6.4 0.00 0.00 0.00 55 1021.7
20260906154552 22 165 0.0 4.8 0.00 0.00 0.00 54 1021.6
20260906153059 22 0 0.0 3.2 0.00 0.00 0.00 55 1021.4
20260906151557 22 124 0.0 6.4 0.00 0.00 0.00 54 1021.6
20260906150055 22 120 0.0 3.2 0.00 0.00 0.00 52 1021.6
20260906144559 21 0 0.0 0.0 0.00 0.00 0.00 57 1021.6
20260906143059 20 0 1.6 4.8 0.00 0.00 0.00 60 1021.7
20260906141558 19 0 0.0 3.2 0.00 0.00 0.00 63 1021.5
20260906140104 18 120 0.0 3.2 0.00 0.00 0.00 64 1021.7
20260906134610 19 0 0.0 0.0 0.00 0.00 0.00 63 1021.7
20260906133101 17 0 0.0 1.6 0.00 0.00 0.00 65 1021.6
20260906131556 -17 0.0 0.0 0.00 0.00 0.00 1021.3
20260906130108 -17 0.0 0.0 0.00 0.00 0.00 1021.3
20260906124605 -17 0.0 0.0 0.00 0.00 0.00 1021.1
20260906123056 -17 0.0 0.0 0.00 0.00 0.00 1021.0
20260906121605 -17 0.0 0.0 0.00 0.00 0.00 1021.2
20260906120101 -17 0.0 0.0 0.00 0.00 0.00 1021.1
20260906114625 -17 0.0 0.0 0.00 0.00 0.00 1021.2
20260906113114 -17 0.0 0.0 0.00 0.00 0.00 1021.3
20260906111558 17 1.6 6.4 0.00 0.00 0.00 100 1020.9
20260906110054 17 121 6.4 12.9 0.00 0.00 0.00 66 1020.8
20260906104556 18 117 4.8 8.0 0.00 0.00 0.00 57 1020.8
20260906103102 18 117 1.6 11.3 0.00 0.00 0.00 54 1020.7
20260906101605 18 130 3.2 6.4 0.00 0.00 0.00 54 1020.5
20260906100056 19 130 0.0 3.2 0.00 0.00 0.00 52 1020.6
20260906094603 19 130 0.0 1.6 0.00 0.00 0.00 50 1020.7
20260906093057 20 130 3.2 9.7 0.00 0.00 0.00 49 1020.7
20260906091551 20 128 6.4 9.7 0.00 0.00 0.00 48 1020.6
20260906090049 21 116 4.8 8.0 0.00 0.00 0.00 46 1020.4
20260906084557 21 93 6.4 11.3 0.00 0.00 0.00 45 1020.3
20260906083055 21 105 3.2 8.0 0.00 0.00 0.00 44 1020.3
20260906081555 21 84 0.0 4.8 0.00 0.00 0.00 46 1020.2
20260906080048 21 0 0.0 3.2 0.00 0.00 0.00 46 1020.1
20260906074556 21 103 3.2 12.9 0.00 0.00 0.00 46 1020.0
20260906073057 21 122 4.8 9.7 0.00 0.00 0.00 46 1020.0
20260906071554 21 106 1.6 9.7 0.00 0.00 0.00 47 1020.1
20260906070046 21 103 1.6 8.0 0.00 0.00 0.00 44 1020.1
20260906064555 21 0 0.0 1.6 0.00 0.00 0.00 44 1020.1
20260906063057 22 80 0.0 4.8 0.00 0.00 0.00 43 1020.3
20260906061556 22 94 1.6 4.8 0.00 0.00 0.00 44 1020.4
20260906060133 21 110 1.6 4.8 0.00 0.00 0.00 45 1020.5
20260906054548 21 47 1.6 6.4 0.00 0.00 0.00 48 1020.5
20260906053055 21 47 1.6 6.4 0.00 0.00 0.00 51 1020.8
20260906051554 22 80 0.0 3.2 0.00 0.00 0.00 47 1020.9
20260906050109 23 334 0.0 3.2 0.00 0.00 0.00 40 1021.1
20260906044556 23 339 4.8 17.7 0.00 0.00 0.00 38 1021.3
20260906043057 25 325 1.6 12.9 0.00 0.00 0.00 34 1021.3
20260906041553 25 0 0.0 14.5 0.00 0.00 0.00 33 1020.7
20260906040050 25 124 6.4 12.9 0.00 0.00 0.00 32 1020.1
20260906034556 24 89 1.6 6.4 0.00 0.00 0.00 32 1019.7
20260906033054 24 0 0.0 1.6 0.00 0.00 0.00 31 1019.5
20260906031609 24 68 0.0 1.6 0.00 0.00 0.00 31 1019.6
20260906030056 25 58 0.0 1.6 0.00 0.00 0.00 31 1019.4
20260906024556 25 86 0.0 1.6 0.00 0.00 0.00 30 1019.2
20260906023105 25 89 0.0 1.6 0.00 0.00 0.00 29 1018.9
20260906021558 26 89 1.6 6.4 0.00 0.00 0.00 28 1018.9
20260906020059 26 0 0.0 3.2 0.00 0.00 0.00 27 1018.8
20260906014553 27 101 1.6 8.0 0.00 0.00 0.00 27 1018.8
20260906013055 27 120 9.7 12.9 0.00 0.00 0.00 26 1018.8
20260906011603 27 98 8.0 19.3 0.00 0.00 0.00 26 1018.6
20260906010054 28 135 4.8 9.7 0.00 0.00 0.00 25 1018.6
20260906004556 28 133 3.2 8.0 0.00 0.00 0.00 24 1018.6
20260906003058 29 0 0.0 3.2 0.00 0.00 0.00 23 1018.7
20260906001554 29 195 1.6 4.8 0.00 0.00 0.00 22 1018.6
20260906000105 30 176 3.2 6.4 0.00 0.00 0.00 22 1018.7
20260905234559 30 120 0.0 4.8 0.00 0.00 0.00 21 1018.5
20260905233102 31 120 0.0 3.2 0.00 0.00 0.00 20 1018.5
20260905231603 31 120 0.0 4.8 0.00 0.00 0.00 21 1018.4
20260905230100 31 314 0.0 4.8 0.00 0.00 0.00 21 1018.4